This demonstration page uses our WeatherBlox Daily Observations layout. Learn more.

Left ArrowRight Arrow

38.20091, -84.87328

Hourly Observations for July 14, 2018

Temp ( °F °C ) Dew Point ( °F °C ) Humidity (%) Winds ( mph kmh ) Pressure ( in mb ) Visibility ( mi km ) Precip ( " mm )
12:53 am 00:53 Clear 70 21.1 66 18.9 87 87 Calm 30.09 1019 10 16 0.00 0.00
1:53 am 01:53 Clear 68 20 65 18.3 90 90 Calm 30.07 1018 10 16 0.00 0.00
2:53 am 02:53 Clear 68 20 65 18.3 90 90 Calm 30.05 1018 10 16 0.00 0.00
3:53 am 03:53 Clear 67 19.4 65 18.3 93 93 Calm 30.04 1017 9 14 0.00 0.00
4:53 am 04:53 Clear 66 18.9 64 17.8 93 93 Calm 30.04 1017 8 13 0.00 0.00
5:53 am 05:53 Clear 65 18.3 63 17.2 93 93 Calm 30.05 1018 9 14 0.00 0.00
6:53 am 06:53 Sunny 66 18.9 63 17.2 90 90 Calm 30.06 1018 8 13 0.00 0.00
7:53 am 07:53 Sunny 72 22.2 67 19.4 84 84 Calm 30.07 1018 8 13 0.00 0.00
8:53 am 08:53 Sunny 75 23.9 68 20 79 79 Calm 30.07 1018 9 14 0.00 0.00
9:53 am 09:53 Sunny 81 27.2 68 20 65 65 Calm 30.08 1019 10 16 0.00 0.00
10:53 am 10:53 Sunny 84 28.9 68 20 59 59 VRB 3 6 30.09 1019 10 16 0.00 0.00
11:53 am 11:53 Sunny 87 30.6 67 19.4 51 51 W 5 7 30.08 1019 10 16 0.00 0.00
12:53 pm 12:53 Mostly Sunny 88 31.1 65 18.3 46 46 VRB 3 6 30.09 1019 10 16 0.00 0.00
1:53 pm 13:53 Mostly Sunny 90 32.2 66 18.9 45 45 undefined N/A 30.08 1019 10 16 0.00 0.00
2:53 pm 14:53 Partly Cloudy 90 32.2 66 18.9 45 45 WNW 3 6 30.06 1018 10 16 0.00 0.00
3:53 pm 15:53 Mostly Sunny 91 32.8 65 18.3 42 42 ESE 5 7 30.04 1017 10 16 0.00 0.00
4:53 pm 16:53 Sunny 92 33.3 64 17.8 40 40 SSE 8 13 30.02 1017 10 16 0.00 0.00
5:53 pm 17:53 Sunny 91 32.8 63 17.2 39 39 Calm 30.02 1017 10 16 0.00 0.00
6:53 pm 18:53 Sunny 89 31.7 64 17.8 43 43 SSE 7 11 29.99 1016 10 16 0.00 0.00
7:53 pm 19:53 Sunny 85 29.4 66 18.9 53 53 SSW 3 6 29.98 1015 10 16 0.00 0.00
8:53 pm 20:53 Sunny 82 27.8 69 20.6 65 65 WSW 3 6 30.00 1016 10 16 0.00 0.00
9:53 pm 21:53 Clear 79 26.1 69 20.6 72 72 SSW 3 6 30.01 1016 10 16 0.00 0.00
10:53 pm 22:53 Clear 77 25 68 20 74 74 Calm 30.01 1016 10 16 0.00 0.00
11:53 pm 23:53 Clear 76 24.4 69 20.6 79 79 Calm 30.01 1016 10 16 0.00 0.00

Powered by AerisWeather